Location: Unspecified
(0.0000°N, 0.0000°E)
Time: 06:09:27
(UTC+00:00)

Altair - Visible Passes

Search period start: 20 October 2021 00:00
Search period end: 30 October 2021 00:00
Orbit: 1502 x 1682 km, 47.2° (Epoch: 19 October)

Date Brightness Start Highest point End Pass type
(mag) Time Alt. Az. Time Alt. Az. Time Alt. Az.
26 Oct 9.5 21:09:46 10° S 21:10:19 11° S 21:10:19 11° S visible
27 Oct 9.3 20:45:04 10° S 20:46:36 14° S 20:46:36 14° S visible
28 Oct 9.2 20:20:27 10° S 20:22:55 15° SSE 20:22:55 15° SSE visible
29 Oct 9.1 19:55:58 10° SSE 19:59:16 15° SSE 19:59:16 15° SSE visible
29 Oct 9.6 21:56:36 10° SW 21:57:18 13° SW 21:57:18 13° SW visible
